FW8155 Weather Reports


Display with metric or nautical units.
time (UTC)temp
F
wind
direction
speed
MPH
gust
MPH
rain 1hr
in
rain 24hr
in
rain mn
in
humidity
%
barometer
mb
20260504221027 64 25 24.0 24.0 0.00 0.00 0.00 34 1006.9
20260504220523 64 34 16.0 20.0 0.00 0.00 0.00 34 1006.5
20260504220021 64 21 17.0 23.0 0.00 0.00 0.00 34 1006.9
20260504215517 64 26 14.0 23.0 0.00 0.00 0.00 34 1006.9
20260504215014 64 40 14.0 23.0 0.00 0.00 0.00 34 1006.7
20260504214510 65 37 22.0 23.0 0.00 0.00 0.00 33 1006.6
20260504214006 65 8 11.0 30.0 0.00 0.00 0.00 33 1006.4
20260504213503 65 56 9.0 20.0 0.00 0.00 0.00 33 1006.6
20260504213001 66 28 13.0 23.0 0.00 0.00 0.00 33 1006.5
20260504212456 65 20 11.0 24.0 0.00 0.00 0.00 33 1006.5
20260504211954 66 358 11.0 22.0 0.00 0.00 0.00 32 1006.5
20260504211450 65 48 7.0 21.0 0.00 0.00 0.00 32 1006.6
20260504210948 65 26 12.0 26.0 0.00 0.00 0.00 32 1006.6
20260504210444 66 62 17.0 20.0 0.00 0.00 0.00 31 1006.3
20260504205941 66 31 11.0 23.0 0.00 0.00 0.00 32 1006.5
20260504205439 66 32 13.0 24.0 0.00 0.00 0.00 32 1006.5
20260504204937 66 43 18.0 28.0 0.00 0.00 0.00 31 1006.6
20260504204435 67 15 17.0 25.0 0.00 0.00 0.00 31 1006.7
20260504203934 66 28 17.0 22.0 0.00 0.00 0.00 32 1006.7
20260504203431 66 18 14.0 22.0 0.00 0.00 0.00 31 1006.5
20260504202927 67 39 14.0 17.0 0.00 0.00 0.00 31 1006.4
20260504202424 68 28 22.0 24.0 0.00 0.00 0.00 31 1006.5
20260504201920 69 47 9.0 22.0 0.00 0.00 0.00 30 1006.5
20260504201418 69 11 11.0 27.0 0.00 0.00 0.00 30 1006.3
20260504200915 70 36 12.0 24.0 0.00 0.00 0.00 30 1006.5
20260504200412 68 25 14.0 25.0 0.00 0.00 0.00 31 1006.3
20260504195909 69 24 20.0 28.0 0.00 0.00 0.00 30 1006.4
20260504195404 69 29 12.0 27.0 0.00 0.00 0.00 30 1006.3
20260504194901 68 53 17.0 22.0 0.00 0.00 0.00 30 1006.2
20260504194357 70 23 16.0 22.0 0.00 0.00 0.00 30 1006.1
20260504193853 68 58 11.0 26.0 0.00 0.00 0.00 30 1006.2
20260504193350 67 28 9.0 17.0 0.00 0.00 0.00 32 1006.4
20260504192849 68 15 16.0 24.0 0.00 0.00 0.00 31 1006.3
20260504192346 70 23 17.0 28.0 0.00 0.00 0.00 30 1006.5
20260504191845 70 26 18.0 28.0 0.00 0.00 0.00 30 1006.4
20260504191342 70 14 13.0 25.0 0.00 0.00 0.00 30 1006.5
20260504190838 71 2 13.0 24.0 0.00 0.00 0.00 30 1006.4
20260504190333 70 33 21.0 21.0 0.00 0.00 0.00 31 1006.6
20260504185830 69 19 20.0 24.0 0.00 0.00 0.00 32 1006.6
20260504185327 70 36 13.0 27.0 0.00 0.00 0.00 32 1006.3
20260504184823 70 42 24.0 27.0 0.00 0.00 0.00 32 1006.4
20260504184319 70 19 18.0 29.0 0.00 0.00 0.00 32 1006.1
20260504183815 70 70 7.0 17.0 0.00 0.00 0.00 30 1006.1
20260504183313 69 39 14.0 21.0 0.00 0.00 0.00 31 1006.2
20260504182811 70 66 11.0 23.0 0.00 0.00 0.00 30 1006.1
20260504182308 70 34 10.0 14.0 0.00 0.00 0.00 28 1006.1
20260504181805 69 50 10.0 18.0 0.00 0.00 0.00 29 1006.2
20260504181302 68 75 11.0 22.0 0.00 0.00 0.00 31 1006.1
20260504180801 69 37 10.0 17.0 0.00 0.00 0.00 30 1006.1
20260504180259 69 23 13.0 23.0 0.00 0.00 0.00 30 1006.2
20260504175757 71 67 11.0 25.0 0.00 0.00 0.00 29 1006.0
20260504175253 69 38 11.0 24.0 0.00 0.00 0.00 31 1005.8
20260504174751 69 19 13.0 21.0 0.00 0.00 0.00 31 1006.1
20260504174249 73 75 3.0 6.0 0.00 0.00 0.00 21 1006.1
20260504173745 74 9 5.0 7.0 0.00 0.00 0.00 20 1006.1
20260504173242 73 127 0.0 5.0 0.00 0.00 0.00 21 1006.1
20260504172739 74 122 7.0 9.0 0.00 0.00 0.00 21 1005.8
20260504172236 73 143 5.0 9.0 0.00 0.00 0.00 22 1006.0
20260504171732 73 73 3.0 8.0 0.00 0.00 0.00 21 1005.7
20260504171229 71 157 7.0 8.0 0.00 0.00 0.00 23 1005.8
20260504170726 73 83 0.0 5.0 0.00 0.00 0.00 22 1005.8
20260504170223 71 0 4.0 6.0 0.00 0.00 0.00 23 1006.3
20260504160142 70 39 3.0 5.0 0.00 0.00 0.00 26 1006.3
20260504151109 69 233 2.0 3.0 0.00 0.00 0.00 30 1006.1
20260504150607 68 217 3.0 5.0 0.00 0.00 0.00 30 1006.4
20260504150103 67 201 2.0 6.0 0.00 0.00 0.00 32 1006.3
20260504141032 60 352 3.0 7.0 0.00 0.00 0.00 38 1007.0
20260504140529 59 332 2.0 9.0 0.00 0.00 0.00 39 1006.5
20260504130453 47 240 5.0 5.0 0.00 0.00 0.00 54 1006.5
20260504110340 42 331 4.0 5.0 0.00 0.00 0.00 62 1006.1
20260504100257 47 227 3.0 5.0 0.00 0.00 0.00 58 1006.4
20260504081651 45 260 2.0 2.0 0.00 0.00 0.00 60 1007.2
20260504081147 45 237 2.0 3.0 0.00 0.00 0.00 60 1007.2
20260504080644 45 233 2.0 2.0 0.00 0.00 0.00 62 1007.4
20260504080140 45 235 0.0 3.0 0.00 0.00 0.00 61 1007.4
20260504070108 47 172 0.0 1.0 0.00 0.00 0.00 61 1008.2
20260504050456 49 54 0.0 2.0 0.00 0.00 0.00 58 1008.9
20260504045953 49 26 3.0 3.0 0.00 0.00 0.00 58 1009.0
20260504045449 49 39 3.0 3.0 0.00 0.00 0.00 57 1008.9
20260504044945 49 32 2.0 3.0 0.00 0.00 0.00 57 1008.9
20260504044443 50 36 2.0 3.0 0.00 0.00 0.00 57 1008.9
20260504043940 50 25 3.0 3.0 0.00 0.00 0.00 56 1009.2
20260504043437 50 29 3.0 3.0 0.00 0.00 0.00 56 1009.2
20260504042935 50 36 2.0 3.0 0.00 0.00 0.00 56 1009.2
20260504042431 50 36 2.0 3.0 0.00 0.00 0.00 55 1009.5
20260504041928 50 121 2.0 3.0 0.00 0.00 0.00 56 1009.5
20260504041424 50 120 1.0 2.0 0.00 0.00 0.00 56 1009.5
20260504040920 50 74 0.0 2.0 0.00 0.00 0.00 55 1009.2
20260504040418 50 74 0.0 3.0 0.00 0.00 0.00 54 1009.8
20260504035914 51 147 3.0 4.0 0.00 0.00 0.00 54 1009.5
20260504035412 51 123 2.0 4.0 0.00 0.00 0.00 53 1009.7
20260504034908 52 138 3.0 4.0 0.00 0.00 0.00 52 1009.6
20260504034406 52 141 4.0 4.0 0.00 0.00 0.00 52 1009.8
20260504033903 53 129 2.0 3.0 0.00 0.00 0.00 53 1009.9
20260504033400 52 102 2.0 2.0 0.00 0.00 0.00 53 1009.8
20260504032857 52 151 0.0 2.0 0.00 0.00 0.00 53 1009.8
20260504032354 53 99 0.0 1.0 0.00 0.00 0.00 51 1009.7
20260504031850 54 106 0.0 3.0 0.00 0.00 0.00 50 1009.6
20260504031348 55 85 4.0 5.0 0.00 0.00 0.00 49 1009.7
20260504030844 55 43 5.0 6.0 0.00 0.00 0.00 47 1009.6
20260504030342 56 29 5.0 7.0 0.00 0.00 0.00 46 1009.7
20260504025837 57 31 7.0 10.0 0.00 0.00 0.00 46 1009.8
20260504025334 57 49 9.0 10.0 0.00 0.00 0.00 46 1009.7
20260504024831 57 32 7.0 14.0 0.00 0.00 0.00 44 1009.6
20260504024327 58 24 9.0 14.0 0.00 0.00 0.00 43 1009.7
20260504023824 59 36 11.0 12.0 0.00 0.00 0.00 42 1009.8
20260504023321 60 8 11.0 17.0 0.00 0.00 0.00 41 1009.5
20260504022817 60 24 5.0 17.0 0.00 0.00 0.00 41 1009.5
20260504022314 61 36 13.0 20.0 0.00 0.00 0.00 38 1009.6
20260504021810 62 18 17.0 23.0 0.00 0.00 0.00 33 1009.1
20260504021308 62 0 5.0 9.0 0.00 0.00 0.00 31 1009.5
20260504020805 62 330 6.0 6.0 0.00 0.00 0.00 31 1009.1
20260504020302 62 341 4.0 4.0 0.00 0.00 0.00 30 1008.6
20260504015757 62 15 0.0 1.0 0.00 0.00 0.00 31 1008.8
20260504015254 63 98 1.0 2.0 0.00 0.00 0.00 30 1008.5
20260504014750 64 125 2.0 3.0 0.00 0.00 0.00 32 1008.5
20260504014246 64 90 1.0 2.0 0.00 0.00 0.00 30 1008.2
20260504013744 64 0 1.0 2.0 0.00 0.00 0.00 30 1008.3
20260504013242 66 0 0.0 2.0 0.00 0.00 0.00 28 1008.2
20260504012738 66 272 5.0 10.0 0.00 0.00 0.00 28 1008.1
20260504012236 66 117 1.0 4.0 0.00 0.00 0.00 28 1008.2
20260504011732 66 114 4.0 4.0 0.00 0.00 0.00 29 1008.3
20260504011229 66 145 1.0 1.0 0.00 0.00 0.00 29 1008.2
20260504010725 66 120 1.0 1.0 0.00 0.00 0.00 29 1008.2
20260504010221 67 262 1.0 2.0 0.00 0.00 0.00 27 1008.3
20260504005718 67 165 0.0 1.0 0.00 0.00 0.00 27 1008.3
20260504005215 68 172 0.0 2.0 0.00 0.00 0.00 27 1008.2
20260504004713 68 187 0.0 3.0 0.00 0.00 0.00 27 1008.3
20260504004210 68 170 4.0 7.0 0.00 0.00 0.00 25 1008.3
20260504003706 69 180 1.0 8.0 0.00 0.00 0.00 26 1008.0
20260504003203 69 189 4.0 7.0 0.00 0.00 0.00 25 1008.2
20260504002700 71 197 6.0 12.0 0.00 0.00 0.00 25 1008.5
20260504002157 71 184 5.0 8.0 0.00 0.00 0.00 25 1008.6
20260504001655 71 174 10.0 10.0 0.00 0.00 0.00 24 1008.5
20260504001151 72 145 4.0 8.0 0.00 0.00 0.00 24 1008.3
20260504000648 71 192 0.0 4.0 0.00 0.00 0.00 23 1008.8
20260504000145 72 270 0.0 4.0 0.00 0.00 0.00 23 1008.8
20260503235643 72 161 4.0 8.0 0.00 0.00 0.00 24 1008.6
20260503235140 71 186 3.0 4.0 0.00 0.00 0.00 24 1009.0
20260503234638 69 194 0.0 2.0 0.00 0.00 0.00 25 1008.9
20260503234136 69 233 3.0 7.0 0.00 0.00 0.00 25 1009.0
20260503233632 70 256 5.0 6.0 0.00 0.00 0.00 25 1009.0
20260503233128 70 230 0.0 5.0 0.00 0.00 0.00 25 1009.1
20260503232625 72 270 3.0 6.0 0.00 0.00 0.00 23 1009.2
20260503232122 73 225 3.0 7.0 0.00 0.00 0.00 23 1008.9
20260503231620 72 142 5.0 6.0 0.00 0.00 0.00 23 1009.1
20260503231116 72 197 4.0 7.0 0.00 0.00 0.00 23 1009.2
20260503230614 72 246 1.0 5.0 0.00 0.00 0.00 24 1009.1
20260503230111 72 208 5.0 5.0 0.00 0.00 0.00 24 1009.2
20260503225608 71 183 5.0 7.0 0.00 0.00 0.00 24 1009.4
20260503225107 72 164 6.0 9.0 0.00 0.00 0.00 23 1009.4
20260503224605 71 352 0.0 5.0 0.00 0.00 0.00 24 1009.5
20260503224103 72 198 1.0 7.0 0.00 0.00 0.00 24 1009.5
20260503223601 72 180 4.0 7.0 0.00 0.00 0.00 23 1009.5
20260503223056 72 225 2.0 6.0 0.00 0.00 0.00 24 1009.9
20260503222554 72 186 5.0 10.0 0.00 0.00 0.00 23 1009.8
20260503222052 70 180 5.0 8.0 0.00 0.00 0.00 27 1009.8
20260503221550 71 117 2.0 6.0 0.00 0.00 0.00 24 1009.7
20260503221047 71 189 5.0 11.0 0.00 0.00 0.00 26 1010.0